Tracking 19638 objects as of 19-Apr-2019
HD Live streaming from Space Station
objects crossing your sky now

ARIANE 44L DEB

Track ARIANE 44L DEB now!


NORAD ID: 24723
Int'l Code: 1991-003F
Perigee: 583.9 km
Apogee: 30,813.6 km
Inclination: 6.5 °
Period: 543.8 minutes
Semi major axis: 22069 km
RCS: 0.4127 m2 (medium)
Launch date: January 15, 1991
Source: France (FR)
Launch site: FRENCH GUIANA (FRGUI)

Note: This is SATELLITE DEBRIS
aabbcc
Your satellite tracking list
Your tracking list is empty




NASA's NSSDC Master Catalog

Two Line Element Set (TLE):
1 24723U 91003F   19108.61278494 -.00000125 +00000-0 +26138-3 0  9993
2 24723 006.5013 209.6212 6848675 183.5885 240.4057 02.64793071221881
Source of the keplerian elements: AFSPC